Location: Bastelaar
(51.0950°N, 3.8602°E)
Time: 07:19:14
(UTC+00:00)

Cosmos 1812 - Pass Details

Date: 18 November 2025
Orbit: 338 x 348 km, 82.5° (Epoch: 12 December)

Event Time Altitude Azimuth Distance (km) Brightness Sun altitude
Rises 17:53:22 0° 200° (SSW) 2,242 6.3 -18.6°
Reaches altitude 10° 17:55:24 10° 205° (SSW) 1,390 5.3 -18.9°
Maximum altitude 17:58:20 51° 283° (WNW) 484 2.9 -19.4°
Enters shadow 17:59:46 25° 348° (NNW) 798 3.7 -19.6°
